Total_Precipitation_Accumulation
0.98 1.00 0.90 1.03 1.08 1.05 1.02 1.00 0.90 0.78 0.70 0.53 0.50 0.46 0.36 0.23 0.19 0.20 0.26 0.22 0.33 0.46 0.49 0.38 0.26 0.17 0.14 0.18 0.22 0.31 0.39 0.43 0.55 0.68 0.62 0.57 0.49 0.37 0.26 0.18 0.13 0.12 0.08
0.86 1.01 0.93 0.90 0.98 1.16 1.19 1.11 1.00 0.93 0.86 0.64 0.53 0.49 0.41 0.32 0.26 0.27 0.30 0.24 0.19 0.24 0.35 0.38 0.31 0.23 0.18 0.17 0.21 0.31 0.40 0.42 0.46 0.58 0.63 0.64 0.62 0.46 0.35 0.25 0.19 0.17 0.14
0.80 0.96 0.89 0.78 0.75 0.92 1.09 1.19 1.17 1.07 0.91 0.74 0.61 0.54 0.43 0.36 0.32 0.36 0.34 0.30 0.23 0.16 0.22 0.31 0.31 0.26 0.23 0.23 0.24 0.28 0.35 0.37 0.45 0.56 0.62 0.60 0.57 0.56 0.49 0.37 0.30 0.32 0.35
0.58 0.77 0.81 0.71 0.70 0.87 1.06 1.19 1.24 1.21 1.04 0.91 0.82 0.69 0.55 0.42 0.34 0.34 0.31 0.29 0.27 0.22 0.23 0.25 0.27 0.28 0.28 0.25 0.25 0.26 0.31 0.34 0.39 0.49 0.55 0.49 0.41 0.40 0.38 0.39 0.41 0.46 0.50
0.51 0.70 0.83 0.84 0.85 0.93 1.03 1.09 1.22 1.21 1.16 1.01 0.89 0.72 0.59 0.50 0.37 0.31 0.30 0.30 0.30 0.28 0.28 0.24 0.21 0.21 0.25 0.29 0.25 0.25 0.27 0.30 0.29 0.33 0.36 0.36 0.32 0.31 0.32 0.33 0.36 0.38 0.40
0.62 0.79 0.97 1.07 1.16 1.16 1.17 1.31 1.53 1.47 1.24 1.13 1.03 0.77 0.56 0.48 0.40 0.37 0.31 0.27 0.29 0.31 0.29 0.24 0.21 0.12 0.15 0.24 0.29 0.23 0.26 0.29 0.25 0.29 0.30 0.29 0.26 0.27 0.26 0.25 0.27 0.28 0.29
0.78 0.96 1.15 1.36 1.46 1.32 1.29 1.45 1.67 1.76 1.50 1.30 1.23 1.01 0.76 0.52 0.41 0.42 0.39 0.30 0.28 0.30 0.35 0.38 0.28 0.22 0.18 0.20 0.20 0.18 0.23 0.30 0.31 0.33 0.36 0.36 0.28 0.25 0.22 0.18 0.17 0.20 0.22
0.89 0.93 1.10 1.27 1.32 1.33 1.33 1.37 1.54 1.78 1.67 1.46 1.45 1.59 1.30 0.96 0.55 0.37 0.41 0.36 0.31 0.30 0.31 0.33 0.35 0.31 0.25 0.26 0.11 0.09 0.14 0.23 0.32 0.33 0.36 0.39 0.35 0.26 0.23 0.18 0.15 0.15 0.17
1.18 1.15 1.17 1.29 1.34 1.42 1.38 1.36 1.39 1.56 1.63 1.54 1.54 1.86 1.60 1.28 1.11 0.67 0.44 0.47 0.46 0.42 0.38 0.37 0.39 0.38 0.31 0.27 0.18 0.09 0.09 0.11 0.22 0.29 0.36 0.42 0.37 0.28 0.23 0.22 0.18 0.17 0.16
1.49 1.46 1.47 1.55 1.46 1.39 1.31 1.28 1.29 1.39 1.61 1.61 1.55 1.49 1.41 1.29 1.40 1.13 0.70 0.54 0.55 0.51 0.49 0.44 0.43 0.44 0.44 0.35 0.31 0.20 0.11 0.09 0.17 0.26 0.38 0.41 0.35 0.28 0.24 0.25 0.24 0.21 0.18
2.08 1.99 1.92 1.77 1.56 1.44 1.40 1.42 1.38 1.42 1.49 1.50 1.46 1.40 1.41 1.32 1.10 1.05 1.00 0.78 0.62 0.54 0.53 0.53 0.53 0.49 0.52 0.50 0.43 0.34 0.24 0.11 0.14 0.26 0.36 0.44 0.41 0.34 0.27 0.22 0.22 0.21 0.18
2.03 1.97 1.84 1.61 1.43 1.34 1.38 1.46 1.45 1.45 1.45 1.46 1.40 1.28 1.23 1.19 1.07 1.09 0.97 0.95 0.95 0.66 0.54 0.49 0.51 0.51 0.50 0.55 0.62 0.68 0.48 0.30 0.18 0.22 0.30 0.39 0.47 0.47 0.39 0.29 0.22 0.20 0.18
1.42 1.45 1.45 1.41 1.35 1.29 1.34 1.49 1.54 1.53 1.53 1.49 1.40 1.30 1.31 1.20 1.25 1.34 1.25 1.11 1.01 0.73 0.55 0.43 0.42 0.47 0.50 0.53 0.69 0.88 0.70 0.54 0.34 0.25 0.25 0.27 0.32 0.43 0.51 0.49 0.41 0.33 0.28
1.24 1.25 1.32 1.32 1.31 1.31 1.31 1.36 1.45 1.54 1.54 1.48 1.43 1.46 1.41 1.27 1.34 1.30 1.24 1.28 1.08 0.85 0.63 0.41 0.37 0.41 0.45 0.49 0.72 0.92 0.64 0.61 0.48 0.35 0.30 0.25 0.22 0.25 0.32 0.44 0.56 0.58 0.54
0.93 1.04 1.14 1.20 1.16 1.17 1.20 1.28 1.40 1.44 1.50 1.53 1.52 1.53 1.51 1.44 1.44 1.39 1.43 1.37 1.23 1.00 0.76 0.53 0.43 0.36 0.43 0.48 0.72 0.70 0.57 0.60 0.55 0.43 0.34 0.28 0.22 0.19 0.20 0.26 0.33 0.38 0.46
0.82 0.89 0.86 0.82 0.81 0.86 0.88 0.97 1.13 1.21 1.26 1.32 1.33 1.38 1.39 1.40 1.45 1.44 1.47 1.47 1.36 1.16 0.95 0.74 0.61 0.52 0.56 0.55 0.66 0.57 0.60 0.76 0.64 0.51 0.40 0.32 0.25 0.21 0.18 0.16 0.17 0.18 0.20
0.52 0.60 0.55 0.52 0.58 0.62 0.59 0.66 0.75 0.86 0.95 1.00 1.02 1.04 1.11 1.17 1.25 1.28 1.36 1.40 1.39 1.28 0.97 0.85 0.74 0.64 0.67 0.68 0.70 0.63 0.66 0.70 0.63 0.57 0.46 0.37 0.33 0.27 0.23 0.20 0.16 0.16 0.15
0.22 0.29 0.32 0.32 0.40 0.51 0.52 0.57 0.61 0.63 0.68 0.73 0.76 0.82 0.88 0.94 1.02 1.08 1.13 1.17 1.25 1.30 1.17 1.00 0.85 0.72 0.65 0.67 0.81 0.86 0.84 0.77 0.74 0.80 0.72 0.57 0.47 0.39 0.30 0.25 0.21 0.18 0.17
0.16 0.20 0.23 0.26 0.29 0.39 0.50 0.56 0.58 0.54 0.53 0.51 0.51 0.55 0.64 0.71 0.81 0.88 0.92 0.98 1.08 1.15 1.21 1.07 0.97 0.89 0.75 0.71 0.81 0.83 0.90 1.06 0.99 1.05 1.13 0.93 0.70 0.55 0.44 0.35 0.30 0.26 0.23
0.16 0.15 0.14 0.16 0.24 0.34 0.43 0.51 0.55 0.52 0.49 0.48 0.48 0.49 0.52 0.53 0.57 0.67 0.79 0.95 1.06 1.18 1.23 1.14 1.10 1.07 0.94 0.86 0.91 0.97 1.05 1.13 1.20 1.08 1.10 1.06 0.97 0.83 0.67 0.56 0.48 0.41 0.37
0.12 0.08 0.06 0.08 0.16 0.21 0.26 0.40 0.45 0.45 0.48 0.45 0.46 0.50 0.52 0.48 0.46 0.49 0.50 0.66 0.83 1.03 1.16 1.20 1.19 1.21 1.14 1.05 0.97 1.02 1.13 1.26 1.36 1.36 1.25 1.12 1.07 0.94 0.84 0.74 0.65 0.58 0.54
0.09 0.07 0.05 0.05 0.07 0.08 0.14 0.21 0.30 0.40 0.47 0.50 0.51 0.54 0.51 0.46 0.49 0.47 0.46 0.48 0.56 0.67 0.84 0.95 1.02 1.07 1.12 1.18 1.25 1.27 1.29 1.35 1.43 1.42 1.28 1.30 1.22 1.09 0.94 0.79 0.77 0.76 0.73
0.04 0.03 0.04 0.04 0.04 0.04 0.04 0.07 0.17 0.33 0.47 0.48 0.47 0.61 0.67 0.60 0.59 0.62 0.63 0.56 0.48 0.45 0.56 0.73 0.85 0.89 0.96 1.06 1.26 1.33 1.35 1.35 1.26 1.31 1.18 1.24 1.19 1.08 0.98 0.92 0.90 0.83 0.81
0.02 0.03 0.04 0.07 0.04 0.02 0.02 0.03 0.08 0.23 0.38 0.42 0.42 0.54 0.79 0.83 0.73 0.69 0.73 0.82 0.72 0.55 0.51 0.55 0.69 0.78 0.81 0.96 1.27 1.48 1.45 1.26 1.18 1.22 1.14 1.15 1.11 1.01 0.94 0.90 0.92 0.82 0.78
0.02 0.02 0.03 0.05 0.04 0.03 0.02 0.03 0.06 0.17 0.28 0.32 0.36 0.48 0.64 0.79 0.73 0.69 0.69 0.76 0.79 0.68 0.60 0.59 0.54 0.60 0.70 0.87 1.12 1.36 1.44 1.37 1.23 1.18 1.04 0.96 0.99 0.99 1.01 0.97 0.92 0.88 0.78
0.02 0.02 0.01 0.01 0.01 0.01 0.02 0.03 0.05 0.10 0.15 0.15 0.22 0.38 0.53 0.54 0.50 0.55 0.67 0.78 0.87 0.71 0.60 0.67 0.66 0.67 0.68 0.86 1.17 1.35 1.40 1.34 1.21 1.17 1.09 0.99 0.96 0.96 1.13 1.11 0.95 0.90 0.86